Regional Weather Roundup
Issued by NWS Charleston, WV

Home | Current Version | Previous Version | Graphics & Text | Print | Product List | Glossary On
Versions: 1 2 3 4 5 6 7 8 9 10 11 12 13 14 15 16 17 18 19 20 21 22 23 24 25 26 27
000
ASUS41 KRLX 171810
RWRRLX
West Virginia Regional Weather Roundup
National Weather Service Charleston WV
200 PM EDT THU AUG 17 2017

Note: "fair" indicates few or no clouds below 12,000 feet with no
significant weather and/or obstructions to visibility.

WVZ003-171900-
Northern Panhandle of West Virginia

CITY           SKY/WX    TMP DP  RH WIND       PRES   REMARKS
WHEELING       SUNNY     86  70  58 S10G16    29.94F
$$

WVZ009-171900-
Northwest West Virginia

CITY           SKY/WX    TMP DP  RH WIND       PRES   REMARKS
PARKERSBURG    PTSUNNY   88  74  63 S12       29.95F HX  96
$$

WVZ006-171900-
Western West Virginia

CITY           SKY/WX    TMP DP  RH WIND       PRES   REMARKS
HUNTINGTON     LGT RAIN  85  74  69 SW7       29.95F
$$

WVZ015-171900-
West Central West Virginia

CITY           SKY/WX    TMP DP  RH WIND       PRES   REMARKS
CHARLESTON     MOSUNNY   88  71  57 SW10G18   29.97F
$$

WVZ022-031-171900-
North Central West Virginia

CITY           SKY/WX    TMP DP  RH WIND       PRES   REMARKS
CLARKSBURG     PTSUNNY   88  69  53 S8        29.98F
MORGANTOWN     MOSUNNY   85  69  58 S8        29.99F
$$

WVZ025-035-042-045-171900-
Southern West Virginia

CITY           SKY/WX    TMP DP  RH WIND       PRES   REMARKS
BECKLEY        CLOUDY    83  69  62 SW10      30.09F
LOGAN          PTSUNNY   84  73  70 VRB5      30.03S
BLUEFIELD      CLOUDY    79  68  69 W10       30.12F
LEWISBURG      MOSUNNY   82  68  62 SW7       30.08F
$$

WVZ047-171900-
Northern Mountains of West Virginia

CITY           SKY/WX    TMP DP  RH WIND       PRES   REMARKS
ELKINS         MOSUNNY   85  68  56 W8        30.05F
$$

WVZ052-171900-
Eastern Panhandle of West Virginia

CITY           SKY/WX    TMP DP  RH WIND       PRES   REMARKS
MARTINSBURG    MOSUNNY   85  72  65 VRB5      29.98F
PETERSBURG     SUNNY     90  74  58 E6        29.98F HX  98
$$




USA.gov is the U.S. government's official web portal to all federal, state and local government web resources and services.